CT2IRK-11 Weather Reports


Display with metric or nautical units.
time (UTC)temp
F
wind
direction
speed
MPH
gust
MPH
rain 1hr
in
rain 24hr
in
rain mn
in
humidity
%
barometer
mb
20260902031005 62 237 0.0 0.0 0.00 0.00 0.00 99 1012.5
20260902030006 63 223 0.0 0.0 0.00 0.00 0.00 98 1012.4
20260902025005 63 257 0.0 6.0 0.00 0.00 0.00 98 1012.2
20260902024006 64 294 0.0 7.0 0.00 0.00 0.00 96 1012.2
20260902022005 65 34 7.0 9.0 0.00 0.00 0.00 94 1012.5
20260902021005 65 23 6.0 9.0 0.00 0.00 0.00 93 1012.4
20260902020005 65 31 7.0 10.0 0.00 0.00 0.00 92 1012.6
20260902015005 65 58 7.0 10.0 0.00 0.00 0.00 92 1012.4
20260902014005 65 35 7.0 10.0 0.00 0.00 0.00 93 1012.4
20260902013005 65 35 7.0 10.0 0.00 0.00 0.00 93 1012.5
20260902012005 65 36 6.0 8.0 0.00 0.00 0.00 94 1012.6
20260902011005 65 37 7.0 9.0 0.00 0.00 0.00 94 1012.7
20260902010005 65 68 5.0 7.0 0.00 0.00 0.00 95 1012.7
20260902005005 64 41 3.0 7.0 0.00 0.00 0.00 96 1012.7
20260902004005 63 58 1.0 3.0 0.00 0.00 0.00 99 1012.7
20260902003005 62 22 0.0 0.0 0.00 0.00 0.00 97 1012.8
20260902001005 63 351 0.0 0.0 0.00 0.00 0.00 94 1012.8
20260902000006 65 332 4.0 8.0 0.00 0.00 0.00 92 1012.6
20260901235006 65 39 6.0 9.0 0.00 0.00 0.00 92 1012.6
20260901234016 65 63 7.0 9.0 0.00 0.00 0.00 92 1012.6
20260901233005 65 67 3.0 6.0 0.00 0.00 0.00 91 1012.9
20260901232005 65 32 0.0 5.0 0.00 0.00 0.00 91 1013.0
20260901231006 65 52 0.0 0.0 0.00 0.00 0.00 89 1013.0
20260901230007 65 215 0.0 0.0 0.00 0.00 0.00 89 1012.9
20260901225011 65 225 0.0 0.0 0.00 0.00 0.00 89 1012.9
20260901224005 65 342 0.0 0.0 0.00 0.00 0.00 89 1012.9
20260901223006 65 353 0.0 0.0 0.00 0.00 0.00 88 1013.0
20260901222005 66 286 0.0 0.0 0.00 0.00 0.00 86 1012.9
20260901221005 66 32 0.0 0.0 0.00 0.00 0.00 86 1013.1
20260901220005 66 30 0.0 0.0 0.00 0.00 0.00 84 1013.1
20260901215008 67 24 0.0 0.0 0.00 0.00 0.00 83 1013.1
20260901214007 67 30 0.0 0.0 0.00 0.00 0.00 81 1013.1
20260901213005 67 48 0.0 0.0 0.00 0.00 0.00 81 1013.2
20260901212005 67 24 0.0 0.0 0.00 0.00 0.00 81 1013.0
20260901211005 67 356 0.0 2.0 0.00 0.00 0.00 81 1013.0
20260901210005 68 22 0.0 2.0 0.00 0.00 0.00 80 1012.8
20260901205005 69 31 5.0 7.0 0.00 0.00 0.00 78 1012.7
20260901204005 69 35 6.0 8.0 0.00 0.00 0.00 77 1012.7
20260901203005 69 26 4.0 9.0 0.00 0.00 0.00 77 1012.5
20260901202005 69 57 6.0 10.0 0.00 0.00 0.00 77 1012.3
20260901200004 70 22 5.0 8.0 0.00 0.00 0.00 73 1012.0
20260901195005 70 22 3.0 8.0 0.00 0.00 0.00 71 1012.0
20260901194006 71 40 4.0 9.0 0.00 0.00 0.00 68 1012.0
20260901192005 72 22 6.0 10.0 0.00 0.00 0.00 64 1011.9
20260901191005 72 17 9.0 13.0 0.00 0.00 0.00 64 1011.8
20260901190006 73 12 9.0 15.0 0.00 0.00 0.00 63 1011.7
20260901185006 74 28 11.0 14.0 0.00 0.00 0.00 61 1011.7
20260901184005 75 19 8.0 13.0 0.00 0.00 0.00 59 1011.7
20260901183006 76 45 9.0 13.0 0.00 0.00 0.00 57 1011.6
20260901181005 77 5 9.0 13.0 0.00 0.00 0.00 53 1011.3
20260901174007 79 22 8.0 15.0 0.00 0.00 0.00 51 1011.1
20260901173005 80 22 12.0 15.0 0.00 0.00 0.00 50 1011.0
20260901172005 81 33 8.0 14.0 0.00 0.00 0.00 50 1011.0
20260901171006 82 45 14.0 14.0 0.00 0.00 0.00 49 1010.9
20260901163005 86 287 9.0 13.0 0.00 0.00 0.00 43 1010.5
20260901162004 86 355 6.0 9.0 0.00 0.00 0.00 43 1010.4
20260901155005 86 352 7.0 10.0 0.00 0.00 0.00 44 1010.4
20260901154005 86 19 5.0 9.0 0.00 0.00 0.00 43 1010.4
20260901153005 86 4 5.0 10.0 0.00 0.00 0.00 44 1010.5
20260901152005 87 19 5.0 9.0 0.00 0.00 0.00 44 1010.5
20260901151005 87 67 1.0 10.0 0.00 0.00 0.00 43 1010.5
20260901150005 87 15 6.0 12.0 0.00 0.00 0.00 44 1010.6
20260901145005 87 39 0.0 10.0 0.00 0.00 0.00 43 1010.5
20260901144004 86 41 3.0 12.0 0.00 0.00 0.00 45 1010.5
20260901142005 85 29 9.0 12.0 0.00 0.00 0.00 45 1010.7
20260901141005 86 45 6.0 10.0 0.00 0.00 0.00 46 1010.8
20260901140005 84 347 10.0 13.0 0.00 0.00 0.00 46 1011.0
20260901135005 85 359 8.0 10.0 0.00 0.00 0.00 45 1011.0
20260901134005 85 22 9.0 12.0 0.00 0.00 0.00 46 1011.0
20260901133005 84 41 9.0 12.0 0.00 0.00 0.00 46 1011.1
20260901130005 85 46 8.0 12.0 0.00 0.00 0.00 46 1011.3
20260901125004 85 43 8.0 12.0 0.00 0.00 0.00 46 1011.3
20260901124004 85 349 7.0 10.0 0.00 0.00 0.00 45 1011.3
20260901123004 85 56 5.0 12.0 0.00 0.00 0.00 46 1011.3
20260901122005 84 0 2.0 12.0 0.00 0.00 0.00 47 1011.6
20260901121005 84 270 8.0 12.0 0.00 0.00 0.00 48 1011.6
20260901120004 84 303 6.0 9.0 0.00 0.00 0.00 48 1011.7
20260901115005 83 60 6.0 14.0 0.00 0.00 0.00 50 1011.8
20260901112005 80 353 8.0 10.0 0.00 0.00 0.00 55 1012.0
20260901111005 81 10 8.0 12.0 0.00 0.00 0.00 55 1012.2
20260901110006 81 6 8.0 10.0 0.00 0.00 0.00 51 1012.3
20260901105005 82 328 0.0 2.0 0.00 0.00 0.00 52 1012.3
20260901104005 80 304 0.0 5.0 0.00 0.00 0.00 55 1012.3
20260901103005 81 338 5.0 7.0 0.00 0.00 0.00 53 1012.3
20260901102005 81 338 0.0 0.0 0.00 0.00 0.00 53 1012.5
20260901101005 79 238 0.0 9.0 0.00 0.00 0.00 55 1012.5
20260901100004 81 286 2.0 9.0 0.00 0.00 0.00 54 1012.4
20260901095005 77 328 5.0 10.0 0.00 0.00 0.00 62 1012.5
20260901094006 76 22 7.0 10.0 0.00 0.00 0.00 66 1012.5
20260901093004 74 11 7.0 10.0 0.00 0.00 0.00 70 1012.4
20260901092005 72 26 8.0 10.0 0.00 0.00 0.00 75 1012.4
20260901091004 73 18 2.0 7.0 0.00 0.00 0.00 74 1012.4
20260901090004 72 332 5.0 7.0 0.00 0.00 0.00 76 1012.1
20260901085004 71 264 0.0 5.0 0.00 0.00 0.00 77 1012.2
20260901084004 71 298 1.0 9.0 0.00 0.00 0.00 77 1012.2
20260901083004 71 299 5.0 9.0 0.00 0.00 0.00 76 1012.1
20260901082005 74 342 6.0 10.0 0.00 0.00 0.00 70 1012.0
20260901081005 73 86 5.0 12.0 0.00 0.00 0.00 74 1012.1
20260901080005 72 40 7.0 10.0 0.00 0.00 0.00 75 1012.0
20260901075005 71 6 7.0 12.0 0.00 0.00 0.00 79 1011.9
20260901074005 70 8 7.0 8.0 0.00 0.00 0.00 82 1011.9
20260901073005 68 359 5.0 8.0 0.00 0.00 0.00 85 1011.9
20260901070006 66 51 3.0 6.0 0.00 0.00 0.00 92 1011.7
20260901065005 64 28 5.0 6.0 0.00 0.00 0.00 98 1011.6
20260901063006 61 64 0.0 0.0 0.00 0.00 0.00 99 1011.5
20260901062005 60 180 0.0 0.0 0.00 0.00 0.00 99 1011.5
20260901061007 60 249 0.0 0.0 0.00 0.00 0.00 99 1011.4
20260901060006 60 225 0.0 0.0 0.00 0.00 0.00 99 1011.4
20260901055009 60 202 0.0 0.0 0.00 0.00 0.00 99 1011.3
20260901054006 60 112 0.0 0.0 0.00 0.00 0.00 99 1011.3
20260901052006 59 184 0.0 0.0 0.00 0.00 0.00 99 1011.1
20260901051006 60 221 0.0 0.0 0.00 0.00 0.00 99 1011.2
20260901050005 60 217 0.0 0.0 0.00 0.00 0.00 99 1011.2
20260901044005 61 202 0.0 0.0 0.00 0.00 0.00 99 1011.1
20260901043005 62 34 0.0 0.0 0.00 0.00 0.00 99 1011.2
20260901042006 61 106 0.0 0.0 0.00 0.00 0.00 99 1011.2
20260901041006 61 74 0.0 0.0 0.00 0.00 0.00 98 1011.3
20260901040005 61 86 0.0 0.0 0.00 0.00 0.00 97 1011.4
20260901035006 61 338 0.0 0.0 0.00 0.00 0.00 97 1011.3
20260901034006 62 6 0.0 0.0 0.00 0.00 0.00 96 1011.3
20260901033005 64 22 4.0 7.0 0.00 0.00 0.00 96 1011.3
20260901032006 64 35 4.0 7.0 0.00 0.00 0.00 96 1011.3